Regional Weather Roundup
Issued by NWS Goodland, KS

Home | Current Version | Previous Version | Text Only | Print | Product List | Glossary Off
Versions: 1 2 3 4 5 6 7 8 9 10 11 12 13 14 15 16 17 18 19 20 21 22 23 24 25 26 27 28 29 30 31 32 33 34 35 36 37 38 39 40 41 42 43 44 45 46 47 48 49 50

000
ASUS43 KGLD 050059
RWRGLD

GOODLAND FORECAST AREA HOURLY WEATHER ROUNDUP
NATIONAL WEATHER SERVICE GOODLAND KS
700 PM MDT MON MAY 04 2015

...OFFICIAL OBSERVATIONS...

CITY           SKY/WX    TMP DP  RH WIND       PRES   REMARKS
GOODLAND KS    MOCLDY    57  47  69 NE13      30.04F
HILL CITY KS   CLOUDY    63  53  70 NE16      30.00F
IMPERIAL NEB   CLOUDY    49  45  86 NE10      30.09S
MCCOOK NEB     CLOUDY    54  49  83 NE13      30.07R
AKRON CO       CLOUDY    50  46  86 E14       30.09S
BURLINGTON CO  CLOUDY    57  48  72 NE15      30.05F
LIMON CO       CLOUDY    55  47  74 E17       30.05S
$$

...UNOFFICIAL OBSERVATIONS...

CITY           SKY/WX    TMP DP  RH WIND       PRES   REMARKS
COLBY KS       CLEAR     61  48  63 N13       30.04F
GOVE KS          N/A     66  32  28 MISG        N/A
LENORA KS        N/A     61  32  33 MISG        N/A
NORTON KS      MOCLDY    57  46  67 N14       30.04R
SHARON SPRINGS   N/A     64  54  71 MISG        N/A
KIT CARSON CO    N/A     60  50  69 MISG        N/A
YUMA CO          N/A     50  44  80 E14         N/A
$$


USA.gov is the U.S. government's official web portal to all federal, state and local government web resources and services.